W7JFO-3 Weather Reports


time (UTC)temp
F
wind
direction
speed
knots
gust
knots
rain 1hr
in
rain 24hr
in
rain mn
in
humidity
%
barometer
mb
20260504184645 57 317 3.5 8.7 0.00 0.00 0.00 42 1008.9
20260504183146 57 9 3.5 7.8 0.00 0.00 0.00 42 1009.1
20260504181646 57 347 2.6 6.1 0.00 0.00 0.00 44 1009.2
20260504180146 56 328 3.5 7.8 0.00 0.00 0.00 42 1009.2
20260504174646 56 19 3.5 7.8 0.00 0.00 0.00 43 1009.2
20260504173146 55 64 3.5 7.8 0.00 0.00 0.00 43 1009.4
20260504171646 55 339 3.5 7.0 0.00 0.00 0.00 44 1009.4
20260504170146 55 5 2.6 5.2 0.00 0.00 0.00 44 1009.4
20260504160146 54 109 3.5 9.6 0.00 0.00 0.00 46 1009.5
20260504150146 51 68 2.6 6.1 0.00 0.00 0.00 48 1009.7
20260504140146 48 107 4.3 7.0 0.00 0.00 0.00 50 1009.3
20260504130146 47 89 4.3 7.0 0.00 0.00 0.00 50 1008.8
20260504120146 48 96 7.0 12.2 0.00 0.00 0.00 47 1008.6
20260504110146 49 73 6.1 11.3 0.00 0.00 0.00 46 1008.0
20260504100146 50 101 7.0 8.7 0.00 0.00 0.00 45 1008.0
20260504081647 53 144 4.3 7.8 0.00 0.00 0.00 43 1006.9
20260504080147 54 109 7.0 11.3 0.00 0.00 0.00 42 1006.7
20260504070147 58 101 6.1 13.0 0.00 0.00 0.00 38 1005.9
20260504060147 62 294 3.5 5.2 0.00 0.00 0.00 31 1005.6
20260504050147 63 236 2.6 6.1 0.00 0.00 0.00 29 1005.8
20260504044647 64 216 2.6 4.3 0.00 0.00 0.00 29 1005.9
20260504043147 64 231 4.3 6.1 0.00 0.00 0.00 29 1005.6
20260504041647 64 238 2.6 4.3 0.00 0.00 0.00 29 1006.0
20260504040147 64 218 3.5 6.1 0.00 0.00 0.00 31 1005.6
20260504034647 64 223 2.6 4.3 0.00 0.00 0.00 30 1005.5
20260504033147 64 217 3.5 6.1 0.00 0.00 0.00 30 1005.8
20260504031647 64 236 1.7 3.5 0.00 0.00 0.00 31 1005.4
20260504030147 65 270 3.5 7.0 0.00 0.00 0.00 30 1005.5
20260504024647 66 268 1.7 3.5 0.00 0.00 0.00 30 1005.7
20260504023147 67 265 1.7 2.6 0.00 0.00 0.00 31 1005.8
20260504021647 67 265 1.7 3.5 0.00 0.00 0.00 31 1005.5
20260504020147 67 280 1.7 5.2 0.00 0.00 0.00 29 1005.4
20260504014647 67 241 0.9 3.5 0.00 0.00 0.00 30 1005.7
20260504013147 67 342 1.7 2.6 0.00 0.00 0.00 33 1005.5
20260504011647 67 317 1.7 3.5 0.00 0.00 0.00 31 1005.6
20260504010147 68 331 2.6 3.5 0.00 0.00 0.00 31 1005.5
20260504004647 68 347 1.7 3.5 0.00 0.00 0.00 30 1005.6
20260504003147 68 327 2.6 4.3 0.00 0.00 0.00 29 1005.9
20260504001647 68 318 3.5 5.2 0.00 0.00 0.00 29 1006.0
20260504000147 68 320 3.5 7.8 0.00 0.00 0.00 29 1006.2
20260503234647 68 331 4.3 7.8 0.00 0.00 0.00 30 1006.3
20260503233147 68 323 3.5 7.8 0.00 0.00 0.00 29 1006.6
20260503231647 68 317 4.3 10.4 0.00 0.00 0.00 28 1006.7
20260503230147 68 325 3.5 7.0 0.00 0.00 0.00 30 1006.6
20260503224647 67 321 3.5 6.1 0.00 0.00 0.00 30 1006.8
20260503223147 67 19 3.5 6.1 0.00 0.00 0.00 31 1007.0
20260503221648 66 319 3.5 7.8 0.00 0.00 0.00 31 1007.3
20260503220148 66 0 3.5 6.1 0.00 0.00 0.00 31 1007.4
20260503214648 66 32 3.5 7.0 0.00 0.00 0.00 32 1007.5
20260503213148 66 355 3.5 5.2 0.00 0.00 0.00 32 1007.7
20260503211648 65 342 2.6 4.3 0.00 0.00 0.00 33 1007.8
20260503210148 64 322 3.5 7.0 0.00 0.00 0.00 35 1008.4
20260503204648 63 337 3.5 7.0 0.00 0.00 0.00 37 1008.5
20260503203148 64 355 2.6 7.0 0.00 0.00 0.00 36 1008.9
20260503201648 63 24 2.6 4.3 0.00 0.00 0.00 36 1008.9
20260503200148 63 31 1.7 6.1 0.00 0.00 0.00 36 1009.3
20260503194648 62 14 2.6 4.3 0.00 0.00 0.00 37 1009.3
20260503193148 61 38 1.7 4.3 0.00 0.00 0.00 37 1009.9
20260503191648 59 350 2.6 3.5 0.00 0.00 0.00 34 1010.4
20260503190148 59 355 2.6 5.2 0.00 0.00 0.00 39 1010.6